Location: Alsip
(41.6689°N, 87.7387°W)
Time: 09:47:38
(UTC+00:00)

GEOS 3 Rocket - Pass Details

Date: 01 November 2020
Orbit: 770 x 850 km, 115.0° (Epoch: 25 November)

Event Time Altitude Azimuth Distance (km) Brightness Sun altitude
Exits shadow 23:49:04 13° 54° (NE) 2,230 5.4 -12.5°
Maximum altitude 23:50:58 16° 31° (NNE) 2,083 5.4 -12.8°
Drops below altitude 10° 23:54:04 10° 355° (N) 2,478 6.1 -13.4°
Sets 23:57:18 0° 335° (NNW) 3,421 7.1 -14.0°
